When you browse on this site, cookies collect data to enhance your experience and personalize the content and advertising you see.
Visit our Privacy Policy to learn more. By continuing to use the site, you agree to this use of cookies and data.
  • In Österreich
  • Länderverzeichnis
  • Für 7 Tage
  • Wassertemperatur
  • Satellitenkarten
  • Wetterkarte
  • News
  • Widgets
  • user-avatar
    Anmelden

    Stündliche Wetter Summerville

    Heute, 20 April, Samstag

    Zeit Temperatur Niederschläge Wind Luftdruck Luftfeuchtigkeit
    00:00 +15°C° 0 mm 4 m/S 752 mmHg 72%
    01:00 +14°C° 0 mm 4 m/S 752 mmHg 76%
    02:00 +13°C° 0 mm 4 m/S 752 mmHg 73%
    03:00 +13°C° 0 mm 4 m/S 753 mmHg 71%
    04:00 +12°C° 0 mm 4 m/S 753 mmHg 69%
    05:00 +12°C° 0 mm 4 m/S 754 mmHg 67%
    06:00 +12°C° 0 mm 4 m/S 754 mmHg 66%
    07:00 +12°C° 0 mm 3 m/S 754 mmHg 67%
    08:00 +14°C° 0 mm 4 m/S 755 mmHg 60%
    09:00 +15°C° 0 mm 5 m/S 755 mmHg 53%
    10:00 +17°C° 0 mm 5 m/S 755 mmHg 46%
    11:00 +17°C° 0 mm 6 m/S 755 mmHg 46%
    12:00 +16°C° 0 mm 6 m/S 755 mmHg 46%
    13:00 +16°C° 0 mm 6 m/S 755 mmHg 46%
    14:00 +16°C° 0 mm 6 m/S 755 mmHg 46%
    15:00 +16°C° 0 mm 6 m/S 755 mmHg 46%
    16:00 +16°C° 0 mm 6 m/S 755 mmHg 47%
    17:00 +15°C° 0 mm 5 m/S 756 mmHg 50%
    18:00 +14°C° 0 mm 4 m/S 756 mmHg 54%
    19:00 +13°C° 0 mm 3 m/S 757 mmHg 58%
    20:00 +13°C° 0 mm 3 m/S 757 mmHg 61%
    21:00 +13°C° 0 mm 2 m/S 757 mmHg 64%
    22:00 +13°C° 0 mm 2 m/S 758 mmHg 67%
    23:00 +12°C° 0 mm 2 m/S 758 mmHg 69%

    Morgen, 21 April, Sonntag

    Zeit Temperatur Niederschläge Wind Luftdruck Luftfeuchtigkeit
    00:00 +12°C° 0 mm 2 m/S 758 mmHg 71%
    01:00 +10°C° 0 mm 2 m/S 758 mmHg 72%
    02:00 +10°C° 0 mm 2 m/S 758 mmHg 74%
    03:00 +9°C° 0 mm 2 m/S 758 mmHg 76%
    04:00 +9°C° 0 mm 2 m/S 758 mmHg 77%
    05:00 +9°C° 0 mm 2 m/S 759 mmHg 75%
    06:00 +10°C° 0 mm 2 m/S 759 mmHg 73%
    07:00 +10°C° 0 mm 3 m/S 760 mmHg 71%
    08:00 +12°C° 0 mm 3 m/S 760 mmHg 64%
    09:00 +14°C° 0 mm 3 m/S 760 mmHg 57%
    10:00 +17°C° 0 mm 3 m/S 761 mmHg 50%
    11:00 +18°C° 0 mm 3 m/S 761 mmHg 48%
    12:00 +19°C° 0 mm 3 m/S 760 mmHg 45%
    13:00 +20°C° 0 mm 3 m/S 760 mmHg 42%
    14:00 +21°C° 0 mm 3 m/S 760 mmHg 42%
    15:00 +21°C° 0 mm 3 m/S 760 mmHg 41%
    16:00 +21°C° 0 mm 3 m/S 760 mmHg 41%
    17:00 +19°C° 0 mm 2 m/S 760 mmHg 47%
    18:00 +18°C° 0 mm 2 m/S 761 mmHg 52%
    19:00 +16°C° 0 mm 1 m/S 761 mmHg 58%
    20:00 +15°C° 0 mm 1 m/S 762 mmHg 60%
    21:00 +15°C° 0 mm 1 m/S 762 mmHg 62%
    22:00 +14°C° 0 mm 1 m/S 763 mmHg 65%
    23:00 +14°C° 0 mm 1 m/S 762 mmHg 66%

    übermorgen, 22 April, Montag

    Zeit Temperatur Niederschläge Wind Luftdruck Luftfeuchtigkeit
    00:00 +12°C° 0 mm 0 m/S 762 mmHg 67%
    01:00 +12°C° 0 mm 0 m/S 762 mmHg 68%
    02:00 +13°C° 0 mm 1 m/S 762 mmHg 69%
    03:00 +12°C° 0 mm 1 m/S 762 mmHg 69%
    04:00 +12°C° 0 mm 1 m/S 762 mmHg 70%
    05:00 +13°C° 0 mm 1 m/S 763 mmHg 68%
    06:00 +14°C° 0 mm 1 m/S 763 mmHg 67%
    07:00 +14°C° 0 mm 1 m/S 763 mmHg 65%
    08:00 +18°C° 0 mm 1 m/S 764 mmHg 58%
    09:00 +20°C° 0 mm 1 m/S 764 mmHg 51%
    10:00 +23°C° 0 mm 2 m/S 764 mmHg 44%
    11:00 +24°C° 0 mm 2 m/S 764 mmHg 41%
    12:00 +25°C° 0 mm 2 m/S 764 mmHg 38%
    13:00 +27°C° 0 mm 2 m/S 764 mmHg 35%
    14:00 +27°C° 0 mm 2 m/S 763 mmHg 36%
    15:00 +27°C° 0 mm 2 m/S 763 mmHg 37%
    16:00 +26°C° 0 mm 2 m/S 762 mmHg 38%
    17:00 +25°C° 0 mm 2 m/S 763 mmHg 44%
    18:00 +23°C° 0 mm 1 m/S 763 mmHg 51%
    19:00 +21°C° 0 mm 1 m/S 763 mmHg 57%
    20:00 +20°C° 0 mm 1 m/S 763 mmHg 61%
    21:00 +19°C° 0 mm 1 m/S 763 mmHg 65%
    22:00 +18°C° 0 mm 1 m/S 764 mmHg 69%
    23:00 +18°C° 0 mm 1 m/S 764 mmHg 72%

    23 April, Dienstag

    Zeit Temperatur Niederschläge Wind Luftdruck Luftfeuchtigkeit
    00:00 +16°C° 0 mm 1 m/S 764 mmHg 75%
    01:00 +15°C° 0 mm 0 m/S 763 mmHg 78%
    02:00 +14°C° 0 mm 0 m/S 763 mmHg 79%
    03:00 +14°C° 0 mm 0 m/S 763 mmHg 80%
    04:00 +14°C° 0 mm 0 m/S 763 mmHg 82%
    05:00 +15°C° 0 mm 0 m/S 763 mmHg 78%
    06:00 +16°C° 0 mm 0 m/S 763 mmHg 75%
    07:00 +16°C° 0 mm 0 m/S 764 mmHg 72%
    08:00 +20°C° 0 mm 0 m/S 764 mmHg 61%
    09:00 +23°C° 0 mm 0 m/S 764 mmHg 51%
    10:00 +26°C° 0 mm 0 m/S 764 mmHg 40%
    11:00 +27°C° 0 mm 0 m/S 763 mmHg 38%
    12:00 +29°C° 0 mm 0 m/S 763 mmHg 35%
    13:00 +30°C° 0 mm 0 m/S 763 mmHg 33%
    14:00 +31°C° 0 mm 1 m/S 762 mmHg 34%
    15:00 +31°C° 0 mm 1 m/S 762 mmHg 35%
    16:00 +30°C° 0 mm 1 m/S 761 mmHg 36%
    17:00 +28°C° 0 mm 2 m/S 761 mmHg 43%
    18:00 +25°C° 0 mm 2 m/S 761 mmHg 49%
    19:00 +23°C° 0 mm 2 m/S 761 mmHg 56%
    20:00 +21°C° 0 mm 2 m/S 761 mmHg 59%
    21:00 +20°C° 0 mm 2 m/S 761 mmHg 62%
    22:00 +19°C° 0 mm 2 m/S 762 mmHg 65%
    23:00 +19°C° 0 mm 2 m/S 761 mmHg 68%

    24 April, Mittwoch

    Zeit Temperatur Niederschläge Wind Luftdruck Luftfeuchtigkeit
    00:00 +18°C° 0 mm 2 m/S 761 mmHg 71%
    01:00 +18°C° 0 mm 2 m/S 761 mmHg 74%
    02:00 +18°C° 0 mm 2 m/S 761 mmHg 75%
    03:00 +17°C° 0 mm 2 m/S 760 mmHg 76%
    04:00 +17°C° 0 mm 2 m/S 760 mmHg 78%
    05:00 +18°C° 0 mm 2 m/S 760 mmHg 75%
    06:00 +18°C° 0 mm 2 m/S 760 mmHg 72%
    07:00 +18°C° 0 mm 2 m/S 761 mmHg 69%
    08:00 +21°C° 0 mm 2 m/S 761 mmHg 61%
    09:00 +25°C° 0 mm 2 m/S 761 mmHg 52%
    10:00 +28°C° 0 mm 2 m/S 761 mmHg 44%
    11:00 +29°C° 0 mm 3 m/S 760 mmHg 41%
    12:00 +30°C° 0 mm 3 m/S 760 mmHg 37%
    13:00 +33°C° 0 mm 3 m/S 760 mmHg 34%
    14:00 +33°C° 0 mm 3 m/S 759 mmHg 35%
    15:00 +33°C° 0 mm 3 m/S 759 mmHg 35%
    16:00 +33°C° 0 mm 3 m/S 758 mmHg 36%
    17:00 +30°C° 0 mm 3 m/S 758 mmHg 42%
    18:00 +28°C° 0 mm 3 m/S 758 mmHg 49%
    19:00 +25°C° 0 mm 2 m/S 758 mmHg 55%
    20:00 +24°C° 0 mm 3 m/S 758 mmHg 58%
    21:00 +22°C° 0 mm 3 m/S 759 mmHg 61%
    22:00 +21°C° 0 mm 3 m/S 759 mmHg 63%
    23:00 +21°C° 0 mm 3 m/S 759 mmHg 65%

    25 April, Donnerstag

    Zeit Temperatur Niederschläge Wind Luftdruck Luftfeuchtigkeit
    00:00 +21°C° 0 mm 3 m/S 758 mmHg 66%
    01:00 +21°C° 0 mm 3 m/S 758 mmHg 68%
    02:00 +20°C° 0 mm 2 m/S 758 mmHg 70%
    03:00 +20°C° 0 mm 2 m/S 758 mmHg 72%
    04:00 +19°C° 0 mm 2 m/S 758 mmHg 74%
    05:00 +20°C° 0 mm 2 m/S 758 mmHg 73%
    06:00 +20°C° 0 mm 2 m/S 758 mmHg 73%
    07:00 +20°C° 0 mm 2 m/S 759 mmHg 72%
    08:00 +24°C° 0 mm 2 m/S 759 mmHg 61%
    09:00 +26°C° 0 mm 2 m/S 759 mmHg 51%
    10:00 +29°C° 0 mm 3 m/S 759 mmHg 40%
    11:00 +30°C° 0 mm 3 m/S 759 mmHg 36%
    12:00 +31°C° 0 mm 3 m/S 758 mmHg 32%
    13:00 +34°C° 0 mm 4 m/S 758 mmHg 28%
    14:00 +34°C° 0 mm 4 m/S 758 mmHg 29%
    15:00 +34°C° 0 mm 4 m/S 757 mmHg 30%
    16:00 +34°C° 0 mm 4 m/S 757 mmHg 31%
    17:00 +31°C° 0 mm 3 m/S 757 mmHg 38%
    18:00 +29°C° 0 mm 3 m/S 757 mmHg 45%
    19:00 +27°C° 0 mm 2 m/S 757 mmHg 52%
    20:00 +26°C° 0 mm 2 m/S 758 mmHg 56%
    21:00 +25°C° 0 mm 2 m/S 758 mmHg 60%
    22:00 +24°C° 0 mm 2 m/S 758 mmHg 64%
    23:00 +23°C° 0 mm 2 m/S 758 mmHg 66%
    Mehr zeigen